User: anonymous   Login
Location: Mount Kobau Star Party
(49.1167°N, 119.7333°W)
Time: 22:18:26
(UTC-07:00)
Language:

TSX-5 - Orbit

View from above orbital plane
View from above orbital plane
View from above satellite
View from above satellite

Ground track
Ground track

The orbit data is extracted from the following two-line orbital elements,

1 26374U 00030A   15182.08085785  .00002508  00000-0  22489-3 0  9996
2 26374 068.9326 001.4359 0669669 006.3892 126.1463 13.99978491755527
Epoch (UTC): 01 July 2015 01:56:26
Eccentricity: 0.0669669
inclination: 68.9326°
perigee height: 407 km
apogee height: 1381 km
right ascension of ascending node: 1.4359°
argument of perigee: 6.3892°
revolutions per day: 13.99978491
mean anomaly at epoch: 126.1463°
orbit number at epoch: 75552

The dashed part of the orbit path shows where the satellite is in the earth's shadow,  

DLR